Location: York
(31.8935°S, 116.7682°E)
Time: 13:36:25
(UTC+08:00)

X-37B - Visible Passes

Search period start: 05 August 2021 00:00
Search period end: 15 August 2021 00:00
Orbit: 383 x 392 km, 45.0° (Epoch: 01 July)

Date Brightness Start Highest point End Pass type
(mag) Time Alt. Az. Time Alt. Az. Time Alt. Az.
05 Aug 3.2 19:30:27 10° SW 19:31:18 16° SSW 19:31:18 16° SSW visible
06 Aug 2.1 18:32:23 10° SSW 18:34:58 22° SSE 18:35:59 19° SE visible
07 Aug 0.7 19:10:11 10° SW 19:13:08 70° SSW 19:13:08 70° SSW visible
08 Aug 1.3 18:11:58 10° SW 18:15:00 38° SSE 18:18:01 10° E visible
08 Aug 3.5 19:49:04 10° W 19:50:31 17° WNW 19:50:31 17° WNW visible
09 Aug 1.7 18:50:11 10° WSW 18:53:15 43° NW 18:55:47 13° NNE visible
11 Aug 3.4 18:30:37 10° W 18:33:00 19° NW 18:35:21 10° N visible
